Regional Weather Roundup
Issued by NWS

Home | Current Version | Previous Version | Text Only | Print | Product List | Glossary Off
Versions: 1 2 3 4 5 6 7 8 9 10 11 12 13 14 15 16 17 18 19 20 21 22 23 24 25 26 27 28 29 30 31 32 33 34 35 36 37 38 39 40 41 42 43 44 45 46 47 48

000
ASUS43 KDMX 281907
RWRIA

WEATHER ROUNDUP FOR IOWA
NATIONAL WEATHER SERVICE DES MOINES IA
200 PM CDT THU MAY 28 2015

NOTE: "FAIR" INDICATES FEW OR NO CLOUDS BELOW 12,000 FEET WITH NO
SIGNIFICANT WEATHER AND/OR OBSTRUCTIONS TO VISIBILITY.

* - THESE STATIONS ARE NOT NWS STATIONS...THUS NOT UNDER NWS
QUALITY CONTROL.  THEY ALSO DO NOT REPORT WEATHER SUCH
AS PRECIPITATION OR FOG.

IAZ001>003-012>014-020>022-031>034-043>046-282000-
   NORTHWEST IOWA

CITY           SKY/WX    TMP DP  RH WIND       PRES   REMARKS
CARROLL *      PTSUNNY   75  61  60 S22G29    30.04S
CHEROKEE *     MOSUNNY   77  57  50 S15G22    30.00F
DENISON *      MOSUNNY   73  63  68 S12G21    30.01S
LE MARS *      SUNNY     81  59  47 S13G25    29.98F HX  81
ORANGE CITY *  SUNNY     79  55  44 S15G21    29.99S
SHELDON *      SUNNY     82  59  44 S21G30    29.98F HX  82
SIOUX CITY     CLOUDY    75  59  57 S15       30.00S
SPENCER        MOSUNNY   81  53  37 S20       30.02F HX  80
STORM LAKE *   SUNNY     79  57  47 S17G24    30.02F HX  80
$$

IAZ055>058-069>071-079>083-090>094-282000-
   SOUTHWEST IOWA

CITY           SKY/WX    TMP DP  RH WIND       PRES   REMARKS
ATLANTIC *     MOSUNNY   73  63  68 SE14      30.04F
AUDUBON *      LGT RAIN  72  63  73 S9        30.06S
CLARINDA *     PTSUNNY   70  64  83 S10       30.08S
COUNCIL BLFS * PTSUNNY   70  66  88 S7        30.04S
CRESTON *      PTSUNNY   68  63  83 SE15G24   30.07S
HARLAN  *      SUNNY     72  64  78 S14       30.07S
LAMONI         CLOUDY    72  62  71 SE8       30.08S
RED OAK *      CLOUDY    68  63  83 S18G25    30.06R HAZE
SHENANDOAH *   CLOUDY    68  66  94 S15G21    30.06S
$$

IAZ047>049-059>061-072>074-084-282000-
   CENTRAL IOWA

CITY           SKY/WX    TMP DP  RH WIND       PRES   REMARKS
AMES           PTSUNNY   78  58  49 SE18      30.06F
ANKENY *       SUNNY     77  61  57 S14G21    30.07S
CHARITON *     LGT RAIN  72  63  73 SE8       30.09F
DES MOINES     CLOUDY    77  60  55 S18G25    30.07S
GRINNELL*      MOSUNNY   77  57  50 SE16      30.09F
KNOXVILLE *    SUNNY     75  57  53 S13G20    30.08S
MARSHALLTOWN   PTSUNNY   79  58  48 S16       30.07F HX  80
PELLA *        CLOUDY    77  63  61 S10G16    30.10S
PERRY *        PTSUNNY   75  57  53 S17G26    30.06R
$$

IAZ004>006-015-016-023>025-035-036-282000-
   NORTH CENTRAL IOWA

CITY           SKY/WX    TMP DP  RH WIND       PRES   REMARKS
ALGONA *       SUNNY     79 -29   1 S21G26    30.04F
CLARION *      SUNNY     81  52  36 S21G26    30.06F HX  80
ESTHERVILLE    MOSUNNY   77  54  44 S24G31    30.03F
FORT DODGE *   CLOUDY    79  57  47 S10G22    30.05F HX  80
MASON CITY     PTSUNNY   80  55  42 S20       30.07F HX  80
FOREST CITY *  SUNNY     77  54  44 S16G25    30.06F
IOWA FALLS *     N/A     77  54  44 S16G24    30.08F
$$

IAZ007>011-017>019-026>030-037>042-050>054-066-282000-
   NORTHEAST IOWA

CITY           SKY/WX    TMP DP  RH WIND       PRES   REMARKS
CEDAR RAPIDS   MOSUNNY   80  57  45 SE16G24   30.10F HX  80
CHARLES CITY * SUNNY     81  54  39 S17G25    30.09F HX  80
CLINTON *      SUNNY     81  54  39 S18G24    30.16F HX  80
DECORAH *      MOSUNNY   79  55  44 S9G22     30.10F
DUBUQUE        PTSUNNY   77  57  50 S18G24    30.14F
MONTICELLO *   MOSUNNY   81  55  41 S16G25    30.12F HX  80
OELWEIN *        N/A     79  55  44 SE15G26   30.12
WATERLOO       PTSUNNY   78  55  44 S18G25    30.08F
$$

IAZ064-065-067-068-078-282000-
   EAST CENTRAL IOWA

CITY           SKY/WX    TMP DP  RH WIND       PRES   REMARKS
DAVENPORT      MOSUNNY   82  51  34 S16       30.14F HX  81
IOWA CITY      MOSUNNY   79  58  48 SE13      30.12F HX  80
MT. PLEASANT * PTSUNNY   79  57  47 S13G20    30.12F HX  80
MUSCATINE *    SUNNY     81  54  39 S16G25    30.12F HX  80
QUAD CITIES    MOSUNNY   83  54  36 SE12G21   30.12F HX  82
$$

IAZ062-063-075>077-085>089-095>099-282000-
   SOUTHEAST IOWA

CITY           SKY/WX    TMP DP  RH WIND       PRES   REMARKS
BURLINGTON     PTSUNNY   80  57  45 SE13      30.12F HX  80
FAIRFIELD *    SUNNY     77  57  50 SE16      30.11F
FORT MADISON * SUNNY     79  61  53 E12       30.12F HX  80
KEOKUK *       SUNNY     79  59  50 SE12      30.10F HX  80
OSKALOOSA *      N/A     79  55  44 SE17G23   30.10F
CENTERVILLE *  SUNNY     75  75 100 SE12      30.11F
OTTUMWA        PTSUNNY   77  59  53 SE15      30.10R
WASHINGTON *   SUNNY     79  55  44 S15G22    30.13S
$$

ABBREVIATIONS USED IN REMARKS
   TC - TEMPERATURES IN CELSIUS
  WCI - WIND CHILL INDEX
   HX - HEAT INDEX
  VSB - VISIBILITY
$$



USA.gov is the U.S. government's official web portal to all federal, state and local government web resources and services.